******************************************************************************* JPL/HORIZONS (2020 CD3) 2025-Dec-12 17:41:14 Rec #:50412103 (+COV) Soln.date: 2021-Jun-25_15:07:42 # obs: 128 (2018-2020) IAU76/J2000 helio. ecliptic osc. elements (au, days, deg., period=Julian yrs): EPOCH= 2458914.5 ! 2020-Mar-06.00 (TDB) Residual RMS= .078773 EC= .03494529757096312 QR= .9863971818171792 TP= 2458866.3996462021 OM= 134.7432090092998 W= 342.2597100247675 IN= .7388576324362984 A= 1.022115305313184 MA= 45.87779192987005 ADIST= 1.057833428809189 PER= 1.03338 N= .953793232 ANGMOM= .017380651 DAN= .98798 DDN= 1.05602 L= 117.0043016 B= -.2251264 MOID= .00224417 TP= 2020-Jan-17.8996462021 Asteroid physical parameters (km, seconds, rotational period in hours): GM= n.a. RAD= n.a. ROTPER= n.a. H= 31.74 G= .150 B-V= n.a. ALBEDO= n.a. STYP= n.a. Non-default Earth gravity model (EOBL_LIM= au): EOBL_LIM= 0.100 EOBL_MOD = 4x4 Asteroid non-gravitational force model (AMRAT= m^2/kg;A1,A2,A3=au/d^2;R0=au): AMRAT= 0. A1= 1.356929074973E-10 A2= 0. A3= 0. Non-standard or simulated/proxy model: ALN= 1. NK= 0. NM= 2. NN= 0. R0= 1. ASTEROID comments: 1: soln ref.= JPL#27, OCC=0 2: source=ORB ******************************************************************************* ******************************************************************************* Ephemeris / WWW_USER Fri Dec 12 17:41:14 2025 Pasadena, USA / Horizons ******************************************************************************* Target body name: (2020 CD3) {source: JPL#27} Center body name: Earth (399) {source: DE441} Center-site name: BODY CENTER ******************************************************************************* Start time : A.D. 2020-May-01 00:00:00.0000 TDB Stop time : A.D. 2020-May-14 00:00:00.0000 TDB Step-size : 1440 minutes ******************************************************************************* Center geodetic : 0.0, 0.0, 0.0 {E-lon(deg),Lat(deg),Alt(km)} Center cylindric: 0.0, 0.0, 0.0 {E-lon(deg),Dxy(km),Dz(km)} Center radii : 6378.137, 6378.137, 6356.752 km {Equator_a, b, pole_c} Keplerian GM : 8.8876924467071033E-10 au^3/d^2 Small perturbers: Yes {source: SB441-N16} Output units : AU-D, deg, Julian Day Number (Tp) Calendar mode : Mixed Julian/Gregorian Output type : GEOMETRIC osculating elements Output format : 10 EOP file : eop.251212.p260310 EOP coverage : DATA-BASED 1962-JAN-20 TO 2025-DEC-12. PREDICTS-> 2026-MAR-09 Reference frame : Ecliptic of J2000.0 ******************************************************************************* Initial IAU76/J2000 heliocentric ecliptic osculating elements (au, days, deg.): EPOCH= 2458914.5 ! 2020-Mar-06.00 (TDB) Residual RMS= .078773 EC= .03494529757096312 QR= .9863971818171792 TP= 2458866.3996462021 OM= 134.7432090092998 W= 342.2597100247675 IN= .7388576324362984 Equivalent ICRF heliocentric cartesian coordinates (au, au/d): X=-9.675822914533228E-01 Y= 2.212974108216997E-01 Z= 1.031890496759188E-01 VX=-4.692966798948430E-03 VY=-1.547085528646655E-02 VZ=-6.494577482405959E-03 Asteroid physical parameters (km, seconds, rotational period in hours): GM= n.a. RAD= n.a. ROTPER= n.a. H= 31.74 G= .150 B-V= n.a. Non-default Earth gravity model (EOBL_LIM= au): EOBL_LIM= 0.100 EOBL_MOD = 4x4 Asteroid non-gravitational force model (AMRAT= m^2/kg;A1,A2,A3=au/d^2;R0=au): AMRAT= 0. A1= 1.356929074973E-10 A2= 0. A3= 0. Non-standard or simulated/proxy model: ALN= 1. NK= 0. NM= 2. NN= 0. R0= 1. ******************************************************************************* JDTDB EC QR IN OM W Tp N MA TA A AD PR ******************************************************************************* $$SOE 2458970.500000000 = A.D. 2020-May-01 00:00:00.0000 TDB EC= 7.687821073858222E-01 QR= 9.586872461032058E-03 IN= 8.070724389655808E+01 OM= 1.645016136073913E+01 W = 6.124257040225898E+01 Tp= 2458908.775355085731 N = 2.023176978015234E-01 MA= 1.248798805664631E+01 TA= 9.329553376738700E+01 A = 4.146250254529051E-02 AD= 7.333813262954895E-02 PR= 1.779379678159274E+03 2458971.500000000 = A.D. 2020-May-02 00:00:00.0000 TDB EC= 8.017677798926029E-01 QR= 9.879993060109348E-03 IN= 7.922354842788351E+01 OM= 1.715824555370924E+01 W = 6.465587093080671E+01 Tp= 2458910.612430393230 N = 1.535124310438065E-01 MA= 9.346998830674897E+00 TA= 9.046718388971951E+01 A = 4.984050047341759E-02 AD= 8.980100788672582E-02 PR= 2.345086958444882E+03 2458972.500000000 = A.D. 2020-May-03 00:00:00.0000 TDB EC= 8.362214827719928E-01 QR= 1.016434739794878E-02 IN= 7.779437132437376E+01 OM= 1.782565515548229E+01 W = 6.783924059211138E+01 Tp= 2458912.395863970276 N = 1.104799053816632E-01 MA= 6.640299261634445E+00 TA= 8.786201178522396E+01 A = 6.206154244148100E-02 AD= 1.139587374850132E-01 PR= 3.258511117984272E+03 2458973.500000000 = A.D. 2020-May-04 00:00:00.0000 TDB EC= 8.720597733691491E-01 QR= 1.043896925897832E-02 IN= 7.643752062299558E+01 OM= 1.844578598601220E+01 W = 7.080585329607059E+01 Tp= 2458914.127194163390 N = 7.328943721496679E-02 MA= 4.351399525652556E+00 TA= 8.547053913777837E+01 A = 8.159254937931402E-02 AD= 1.527461294996497E-01 PR= 4.912031169567811E+03 2458974.500000000 = A.D. 2020-May-05 00:00:00.0000 TDB EC= 9.093972482607714E-01 QR= 1.070225427484336E-02 IN= 7.516666513394556E+01 OM= 1.901414327677527E+01 W = 7.356946865184882E+01 Tp= 2458915.813637286890 N = 4.207424442248354E-02 MA= 2.469184369060908E+00 TA= 8.328263470937407E+01 A = 1.181228392008053E-01 AD= 2.255434241267672E-01 PR= 8.556303385631898E+03 2458975.500000000 = A.D. 2020-May-06 00:00:00.0000 TDB EC= 9.485686928377589E-01 QR= 1.095228253299745E-02 IN= 7.398838363792062E+01 OM= 1.952952679483045E+01 W = 7.614428433146743E+01 Tp= 2458917.466942892410 N = 1.738207129143392E-02 MA= 1.008734735900020E+00 TA= 8.128702541822641E+01 A = 2.129497214303399E-01 AD= 4.149471603276825E-01 PR= 2.071099548288080E+04 2458976.500000000 = A.D. 2020-May-07 00:00:00.0000 TDB EC= 9.901043603697535E-01 QR= 1.118730769718390E-02 IN= 7.289986478843902E+01 OM= 1.999483134755783E+01 W = 7.854495379323355E+01 Tp= 2458919.101284961216 N = 1.421001620985235E-03 MA= 8.156366711273635E-02 TA= 7.947068244698110E+01 A = 1.130529012292353E+00 AD= 2.249870716887523E+00 PR= 2.533424274001870E+05 2458977.500000000 = A.D. 2020-May-08 00:00:00.0000 TDB EC= 1.034651655122958E+00 QR= 1.140626627357041E-02 IN= 7.188845144205084E+01 OM= 2.041696252212950E+01 W = 8.078641902897652E+01 Tp= 2458920.730368110817 N = 9.044568611730334E-03 MA= 5.134568306825408E-01 TA= 7.781867404258711E+01 A =-3.291694504373976E-01 AD= 9.999999999999998E+99 PR= 9.999999999999998E+99 2458978.500000000 = A.D. 2020-May-09 00:00:00.0000 TDB EC= 1.082864992900621E+00 QR= 1.160911875961156E-02 IN= 7.093360459848969E+01 OM= 2.080570869338441E+01 W = 8.288345812935064E+01 Tp= 2458922.364582456648 N = 3.257428610273277E-02 MA= 1.828571151553433E+00 TA= 7.631473670797949E+01 A =-1.400967809595332E-01 AD= 9.999999999999998E+99 PR= 9.999999999999998E+99 2458979.500000000 = A.D. 2020-May-10 00:00:00.0000 TDB EC= 1.135305557861359E+00 QR= 1.179690705844762E-02 IN= 7.001069692999999E+01 OM= 2.117194335171463E+01 W = 8.485014641133489E+01 Tp= 2458924.009266521316 N = 6.634960760688502E-02 MA= 3.681788392130678E+00 TA= 7.494230542911571E+01 A =-8.718715805107836E-02 AD= 9.999999999999998E+99 PR= 9.999999999999998E+99 2458980.500000000 = A.D. 2020-May-11 00:00:00.0000 TDB EC= 1.192386372607418E+00 QR= 1.197155468513986E-02 IN= 6.909518589511342E+01 OM= 2.152584905548619E+01 W = 8.669952028650920E+01 Tp= 2458925.664635413792 N = 1.100405544686006E-01 MA= 6.034113923571369E+00 TA= 7.368547949755947E+01 A =-6.222662511324995E-02 AD= 9.999999999999998E+99 PR= 9.999999999999998E+99 2458981.500000000 = A.D. 2020-May-12 00:00:00.0000 TDB EC= 1.254371453470290E+00 QR= 1.213554035546477E-02 IN= 6.816578505487064E+01 OM= 2.187572762632934E+01 W = 8.844356653663660E+01 Tp= 2458927.327085305005 N = 1.639196508586720E-01 MA= 8.880005262763245E+00 TA= 7.252955859551118E+01 A =-4.770794910318873E-02 AD= 9.999999999999998E+99 PR= 9.999999999999998E+99 2458982.500000000 = A.D. 2020-May-13 00:00:00.0000 TDB EC= 1.321413044569858E+00 QR= 1.229158315047385E-02 IN= 6.720602954170263E+01 OM= 2.222756410965822E+01 W = 9.009344239694414E+01 Tp= 2458928.991061071865 N = 2.284023952847632E-01 MA= 1.222156982030689E+01 TA= 7.146112468949454E+01 A =-3.824232823818172E-02 AD= 9.999999999999998E+99 PR= 9.999999999999998E+99 2458983.500000000 = A.D. 2020-May-14 00:00:00.0000 TDB EC= 1.393602556441609E+00 QR= 1.244241849646691E-02 IN= 6.620442952716067E+01 OM= 2.258517369723130E+01 W = 9.165975131183750E+01 Tp= 2458930.650726996362 N = 3.039112662974492E-01 MA= 1.606148948145516E+01 TA= 7.046785874915194E+01 A =-3.161163029263194E-02 AD= 9.999999999999998E+99 PR= 9.999999999999998E+99 $$EOE ******************************************************************************* TIME Barycentric Dynamical Time ("TDB" or T_eph) output was requested. This continuous coordinate time is equivalent to the relativistic proper time of a clock at rest in a reference frame co-moving with the solar system barycenter but outside the system's gravity well. It is the independent variable in the solar system relativistic equations of motion. TDB runs at a uniform rate of one SI second per second and is independent of irregularities in Earth's rotation. CALENDAR SYSTEM Mixed calendar mode was active such that calendar dates after AD 1582-Oct-15 (if any) are in the modern Gregorian system. Dates prior to 1582-Oct-5 (if any) are in the Julian calendar system, which is automatically extended for dates prior to its adoption on 45-Jan-1 BC. The Julian calendar is useful for matching historical dates. The Gregorian calendar more accurately corresponds to the Earth's orbital motion and seasons. A "Gregorian-only" calendar mode is available if such physical events are the primary interest. REFERENCE FRAME AND COORDINATES Ecliptic at the standard reference epoch Reference epoch: J2000.0 X-Y plane: adopted Earth orbital plane at the reference epoch Note: IAU76 obliquity of 84381.448 arcseconds wrt ICRF X-Y plane X-axis : ICRF Z-axis : perpendicular to the X-Y plane in the directional (+ or -) sense of Earth's north pole at the reference epoch. Symbol meaning [1 au= 149597870.700 km, 1 day= 86400.0 s]: JDTDB Julian Day Number, Barycentric Dynamical Time EC Eccentricity, e QR Periapsis distance, q (au) IN Inclination w.r.t X-Y plane, i (degrees) OM Longitude of Ascending Node, OMEGA, (degrees) W Argument of Perifocus, w (degrees) Tp Time of periapsis (Julian Day Number) N Mean motion, n (degrees/day) MA Mean anomaly, M (degrees) TA True anomaly, nu (degrees) A Semi-major axis, a (au) AD Apoapsis distance (au) PR Sidereal orbit period (day) ABERRATIONS AND CORRECTIONS Geometric osculating elements have NO corrections or aberrations applied. Computations by ... Solar System Dynamics Group, Horizons On-Line Ephemeris System 4800 Oak Grove Drive, Jet Propulsion Laboratory Pasadena, CA 91109 USA General site: https://ssd.jpl.nasa.gov/ Mailing list: https://ssd.jpl.nasa.gov/email_list.html System news : https://ssd.jpl.nasa.gov/horizons/news.html User Guide : https://ssd.jpl.nasa.gov/horizons/manual.html Connect : browser https://ssd.jpl.nasa.gov/horizons/app.html#/x API https://ssd-api.jpl.nasa.gov/doc/horizons.html command-line telnet ssd.jpl.nasa.gov 6775 e-mail/batch https://ssd.jpl.nasa.gov/ftp/ssd/horizons_batch.txt scripts https://ssd.jpl.nasa.gov/ftp/ssd/SCRIPTS Author : Jon.D.Giorgini@jpl.nasa.gov ******************************************************************************* !$$SOF CENTER = '@399' COMMAND = '2020 CD3' OUT_UNITS = 'AU-D' START_TIME = '2020-May-01' STEP_SIZE = '1 day' STOP_TIME = '2020-May-14' TABLE_TYPE = 'ELEMENTS'